User: anonymous   Login
Location: Krasnoyarskiy Pitomnik
(51.1333°N, 71.6167°E)
Time: 08:47:27
(UTC+00:00)
Language:

Envisat - Orbit

View from above orbital plane
View from above orbital plane
View from above satellite
View from above satellite

Ground track
Ground track

The orbit data is extracted from the following two-line orbital elements,

1 27386U 02009A   24112.88747716  .00000625  00000-0  21800-3 0  9992
2 27386  98.2778  75.9490 0001210  84.2489 301.6509 14.38547354160412
Epoch (UTC): 21 April 2024 21:17:58
Eccentricity: 0.0001210
inclination: 98.2778°
perigee height: 762 km
apogee height: 764 km
right ascension of ascending node: 75.9490°
argument of perigee: 84.2489°
revolutions per day: 14.38547354
mean anomaly at epoch: 301.6509°
orbit number at epoch: 16041

The dashed part of the orbit path shows where the satellite is in the earth's shadow,  

DLR